Change the Weather History Date:

Wednesday, October 17, 2012

  Actual Average Record
Temperature  
Mean Temperature 44 °F 45 °F  
Max Temperature 51 °F 58 °F 80 °F (2003)
Min Temperature 36 °F 32 °F 11 °F (1930)
Degree Days  
Heating Degree Days 21 20  
Month to date heating degree days 299 282  
Since 1 July heating degree days 423 588  
Cooling Degree Days 0 0  
Month to date cooling degree days 0 0  
Year to date cooling degree days 531 406  
Moisture  
Dew Point 19 °F    
Average Humidity 36    
Maximum Humidity 48    
Minimum Humidity 24    
Precipitation  
Precipitation 0.00 in 0.03 in 0.53 in (1916)
Month to date precipitation 0.35 0.42  
Year to date precipitation 6.82 10.07  
Snow  
Snow 0.00 in 0.10 in 4.50 in (1916)
Month to date snowfall T 1.1  
Since 1 July snowfall T 2.7  
Since 1 September snowfall T 2.4  
Snow Depth 0.00 in    
Sea Level Pressure  
Sea Level Pressure 30.11 in    
Wind  
Wind Speed 17 mph (West)    
Max Wind Speed 33 mph    
Max Gust Speed 44 mph    
Visibility 10 miles    
Events      
T = Trace of Precipitation, MM = Missing Value Source: NWS Daily Summary

Daily Weather History Graph

Daily Weather History Graph

Search for Another Location

Airport or City:

Trip Planner

Search our weather history database for the weather conditions in past years. The results will help you decide how hot, cold, wet, or windy it might be!

Date:

Astronomy

Oct. 17, 2012 Rise Set
Actual Time 7:49 AM MDT 6:36 PM MDT
Civil Twilight 7:18 AM MDT 7:07 PM MDT
Nautical Twilight 6:43 AM MDT 7:42 PM MDT
Astronomical Twilight 6:08 AM MDT 8:16 PM MDT
Moon 10:39 AM MDT (10/17) 8:03 PM MDT (10/17)
Length of Visible Light 11h 48m
Length of Day
10h 47m
Waxing Crescent, 7% of the Moon is Illuminated
Oct 17
Waxing Crescent
Oct 21
First Quarter
Oct 29
Full
Nov 6
Last Quarter
Nov 13
New

Hourly Weather History & Observations

Time (MDT) Temp. Windchill Dew Point Humidity Pressure Visibility Wind Dir Wind Speed Gust Speed Precip Events Conditions
12:53 AM 42.1 °F 33.9 °F 21.9 °F 45% 29.92 in 10.0 mi West 17.3 mph 33.4 mph N/A   Clear
1:53 AM 42.1 °F 32.6 °F 21.0 °F 43% 29.95 in 10.0 mi West 23.0 mph 31.1 mph N/A   Clear
2:53 AM 41.0 °F 30.9 °F 21.0 °F 45% 30.00 in 10.0 mi West 24.2 mph 33.4 mph N/A   Clear
3:53 AM 41.0 °F 32.5 °F 21.0 °F 45% 30.02 in 10.0 mi West 17.3 mph 25.3 mph N/A   Scattered Clouds
4:53 AM 39.9 °F 32.5 °F 19.9 °F 45% 30.03 in 10.0 mi West 12.7 mph - N/A   Clear
5:53 AM 39.9 °F 37.8 °F 19.9 °F 45% 30.04 in 10.0 mi West 3.5 mph - N/A   Mostly Cloudy
6:53 AM 41.0 °F 35.2 °F 19.9 °F 43% 30.06 in 10.0 mi WNW 9.2 mph 20.7 mph N/A   Clear
7:53 AM 41.0 °F 33.9 °F 19.9 °F 43% 30.06 in 10.0 mi WNW 12.7 mph 21.9 mph N/A   Scattered Clouds
8:53 AM 43.0 °F 37.2 °F 19.0 °F 38% 30.06 in 10.0 mi West 10.4 mph 21.9 mph N/A   Partly Cloudy
9:53 AM 43.0 °F 37.2 °F 19.0 °F 38% 30.09 in 10.0 mi WNW 10.4 mph - N/A   Mostly Cloudy
10:53 AM 45.0 °F 35.8 °F 18.0 °F 34% 30.09 in 10.0 mi WNW 26.5 mph 34.5 mph N/A   Scattered Clouds
11:53 AM 46.9 °F - 18.0 °F 32% 30.09 in 10.0 mi West 19.6 mph 35.7 mph N/A   Partly Cloudy
12:53 PM 46.9 °F - 17.1 °F 30% 30.10 in 10.0 mi WNW 28.8 mph 40.3 mph N/A   Partly Cloudy
1:53 PM 48.9 °F - 17.1 °F 28% 30.10 in 10.0 mi West 21.9 mph 34.5 mph N/A   Scattered Clouds
2:53 PM 51.1 °F - 16.0 °F 25% 30.10 in 10.0 mi West 26.5 mph 33.4 mph N/A   Scattered Clouds
3:53 PM 48.9 °F - 16.0 °F 27% 30.12 in 10.0 mi West 26.5 mph 36.8 mph N/A   Partly Cloudy
4:53 PM 48.9 °F - 16.0 °F 27% 30.14 in 10.0 mi West 24.2 mph 32.2 mph N/A   Clear
5:53 PM 46.9 °F - 16.0 °F 29% 30.15 in 10.0 mi West 21.9 mph 34.5 mph N/A   Clear
6:53 PM 44.1 °F 35.7 °F 16.0 °F 32% 30.19 in 10.0 mi West 20.7 mph 27.6 mph N/A   Clear
7:53 PM 43.0 °F 34.8 °F 17.1 °F 35% 30.22 in 10.0 mi West 18.4 mph 27.6 mph N/A   Clear
8:53 PM 42.1 °F 35.2 °F 18.0 °F 38% 30.25 in 10.0 mi West 12.7 mph - N/A   Clear
9:53 PM 42.1 °F 33.9 °F 19.9 °F 41% 30.27 in 10.0 mi WNW 17.3 mph 21.9 mph N/A   Clear
10:53 PM 41.0 °F 33.9 °F 21.0 °F 45% 30.29 in 10.0 mi West 12.7 mph 21.9 mph N/A   Clear
11:53 PM 39.0 °F 32.8 °F 21.9 °F 50% 30.30 in 10.0 mi WNW 9.2 mph - N/A   Clear